Weather History for Marshfield, WI

Change the Weather History Date:

Wednesday, September 12, 2012

  Actual Average Record
Temperature  
Mean Temperature 62 °F -  
Max Temperature 73 °F 73 °F 90 °F (1931)
Min Temperature 52 °F 48 °F 29 °F (1955)
Degree Days  
Heating Degree Days 2    
Growing Degree Days 12 (Base 50)    
Moisture  
Dew Point 48 °F    
Average Humidity 61    
Maximum Humidity 97    
Minimum Humidity 27    
Precipitation  
Precipitation 0.03 in - - ()
Sea Level Pressure  
Sea Level Pressure 30.08 in    
Wind  
Wind Speed 8 mph (WNW)    
Max Wind Speed 14 mph    
Max Gust Speed 17 mph    
Visibility 10 miles    
Events Rain    
Averages and records for this station are not official NWS values.
T = Trace of Precipitation, MM = Missing Value Source: NWS Daily Summary

Daily Weather History Graph

Daily Weather History Graph

Search for Another Location

Airport:

Trip Planner

Search our weather history database for the weather conditions in past years. The results will help you decide how hot, cold, wet, or windy it might be!

Date:

Astronomy

Sep. 12, 2012 Rise Set
Actual Time 6:36 AM CDT 7:16 PM CDT
Civil Twilight 6:07 AM CDT 7:45 PM CDT
Nautical Twilight 5:32 AM CDT 8:20 PM CDT
Astronomical Twilight 4:56 AM CDT 8:56 PM CDT
Moon 2:46 AM CDT (9/12) 5:09 PM CDT (9/12)
Length of Visible Light 13h 38m
Length of Day
12h 39m
Waning Crescent, 13% of the Moon is Illuminated
Sep 12
Waning Crescent
Sep 15
New
Sep 22
First Quarter
Sep 29
Full
Oct 8
Last Quarter

Hourly Weather History & Observations

Time (CDT) Temp. Dew Point Humidity Pressure Visibility Wind Dir Wind Speed Gust Speed Precip Events Conditions
12:54 AM 68.0 °F 55.9 °F 65% 29.91 in 10.0 mi South 8.1 mph - N/A   Clear
1:54 AM 66.9 °F 55.9 °F 68% 29.93 in 10.0 mi SSW 8.1 mph - N/A   Clear
2:54 AM 66.9 °F 55.9 °F 68% 29.93 in 10.0 mi SSW 8.1 mph - N/A   Clear
3:54 AM 66.0 °F 55.0 °F 68% 29.93 in 10.0 mi South 8.1 mph - N/A   Clear
4:54 AM 63.0 °F 55.0 °F 75% 29.95 in 10.0 mi SSW 5.8 mph - N/A   Clear
5:54 AM 64.0 °F 55.0 °F 73% 29.96 in 10.0 mi SW 8.1 mph - N/A   Clear
6:54 AM 64.0 °F 55.0 °F 73% 30.00 in 10.0 mi WSW 6.9 mph - N/A   Clear
7:54 AM 66.9 °F 55.0 °F 66% 30.02 in 10.0 mi NNW 12.7 mph - N/A   Clear
8:54 AM 68.0 °F 51.1 °F 55% 30.04 in 10.0 mi North 10.4 mph - N/A   Clear
9:54 AM 70.0 °F 39.9 °F 33% 30.07 in 10.0 mi North 9.2 mph - N/A   Clear
10:54 AM 73.0 °F 37.0 °F 27% 30.08 in 10.0 mi North 10.4 mph - N/A   Clear
11:54 AM 71.1 °F 37.0 °F 29% 30.09 in 10.0 mi NE 3.5 mph - N/A   Mostly Cloudy
12:54 PM 71.1 °F 39.0 °F 31% 30.12 in 10.0 mi NNW 11.5 mph - N/A   Overcast
1:54 PM 68.0 °F 42.1 °F 39% 30.12 in 10.0 mi NNW 10.4 mph - N/A   Overcast
2:54 PM 66.0 °F 43.0 °F 43% 30.14 in 10.0 mi NW 9.2 mph - N/A   Overcast
3:54 PM 64.0 °F 41.0 °F 43% 30.15 in 10.0 mi NNW 9.2 mph - N/A   Overcast
4:54 PM 62.1 °F 39.9 °F 44% 30.17 in 10.0 mi NNW 8.1 mph - N/A   Overcast
5:54 PM 60.1 °F 41.0 °F 49% 30.20 in 10.0 mi NW 13.8 mph - N/A   Overcast
6:54 PM 55.9 °F 46.9 °F 72% 30.20 in 8.0 mi NNW 8.1 mph 17.3 mph 0.00 in Rain Light Rain
8:54 PM 53.1 °F 48.9 °F 86% 30.21 in 10.0 mi Calm Calm - 0.00 in Rain Light Rain
9:54 PM 53.1 °F 51.1 °F 93% 30.21 in 10.0 mi NNW 5.8 mph - 0.00 in Rain Light Rain
10:54 PM 52.0 °F 51.1 °F 97% 30.23 in 10.0 mi SW 3.5 mph - 0.00 in Rain Light Rain
11:54 PM 52.0 °F 51.1 °F 97% 30.24 in 10.0 mi SW 3.5 mph - 0.00 in Rain Light Rain